Location: Sungai Liu
(2.3667°N, 113.8667°E)
Time: 12:42:47
(UTC+00:00)

NOSS 3-4 (C) - Pass Details

Date: 20 May 2022
Orbit: 847 x 1365 km, 63.4° (Epoch: 28 June)

Event Time Altitude Azimuth Distance (km) Brightness Sun altitude
Rises 12:14:16 0° 206° (SSW) 3,559 6.5 -25.5°
Reaches altitude 10° 12:16:52 10° 208° (SSW) 2,564 5.7 -26.1°
Maximum altitude 12:22:42 75° 293° (WNW) 885 3.3 -27.4°
Drops below altitude 10° 12:28:18 10° 18° (NNE) 2,459 5.7 -28.7°
Sets 12:30:45 0° 20° (NNE) 3,404 6.4 -29.3°
